Madison, SD

4:49 PM CDT on April 30, 2017 (GMT -0500)
Madison Municipal

Weather History for KMDS - February, 2014

Change the Weather History Date:

Saturday, February 15, 2014

  Actual Average Record
Temperature  
Mean Temperature 18 °F -  
Max Temperature 35 °F 26 °F 41 °F (2011)
Min Temperature 0 °F 8 °F 0 °F (2014)
Degree Days  
Heating Degree Days 48    
Moisture  
Dew Point 19 °F    
Average Humidity 98    
Maximum Humidity 100    
Minimum Humidity 86    
Precipitation  
Precipitation 0.00 in - - ()
Sea Level Pressure  
Sea Level Pressure 29.82 in    
Wind  
Wind Speed 16 mph (West)    
Max Wind Speed 30 mph    
Max Gust Speed 38 mph    
Visibility 10 miles    
Events Rain , Snow    
Averages and records for this station are not official NWS values.
T = Trace of Precipitation, MM = Missing Value Source: NWS Daily Summary

Daily Weather History Graph

Daily Weather History Graph

Search for Another Location

Airport or City:

Trip Planner

Search our weather history database for the weather conditions in past years. The results will help you decide how hot, cold, wet, or windy it might be!

Date:

Astronomy

Feb. 15, 2014 Rise Set
Actual Time 7:27 AM CST 5:58 PM CST
Civil Twilight 6:57 AM CST 6:27 PM CST
Nautical Twilight 6:24 AM CST 7:01 PM CST
Astronomical Twilight 5:50 AM CST 7:35 PM CST
Moon 7:03 PM CST (2/15) 7:23 AM CST (2/15)
Length of Visible Light 11h 29m
Length of Day
10h 30m
Waxing Gibbous, 99% of the Moon is Illuminated
Feb 15
Waxing Gibbous
Feb 22
Last Quarter
Mar 1
New
Mar 8
First Quarter
Mar 16
Full

Hourly Weather History & Observations

Time (CST) Temp. Windchill Dew Point Humidity Pressure Visibility Wind Dir Wind Speed Gust Speed Precip Events Conditions
12:05 AM -0.4 °F -16.7 °F -0.4 °F 100% 29.90 in 10.0 mi South 10.4 mph - N/A   Clear
12:25 AM 1.4 °F -12.5 °F 1.4 °F 100% 29.90 in 10.0 mi South 8.1 mph - N/A   Clear
12:45 AM 1.4 °F -13.5 °F 1.4 °F 100% 29.89 in 10.0 mi South 9.2 mph - N/A   Clear
1:05 AM 3.2 °F - 3.2 °F 100% 29.89 in 10.0 mi North - - N/A   Clear
1:25 AM 3.2 °F -13.1 °F 3.2 °F 100% 29.86 in 10.0 mi South 11.5 mph - N/A   Clear
1:45 AM 5.0 °F -11.6 °F 5.0 °F 100% 29.84 in 10.0 mi South 12.7 mph - N/A   Partly Cloudy
2:05 AM 5.0 °F -11.6 °F 5.0 °F 100% 29.83 in 10.0 mi South 12.7 mph - N/A   Scattered Clouds
2:25 AM 6.8 °F -7.8 °F 5.0 °F 92% 29.83 in 10.0 mi South 10.4 mph - N/A   Mostly Cloudy
2:45 AM 6.8 °F -8.6 °F 6.8 °F 100% 29.81 in 10.0 mi SSE 11.5 mph - N/A   Overcast
3:05 AM 8.6 °F -5.5 °F 6.8 °F 92% 29.79 in 10.0 mi SSE 10.4 mph 16.1 mph N/A   Overcast
3:25 AM 8.6 °F -5.5 °F 6.8 °F 92% 29.78 in 10.0 mi SSE 10.4 mph - N/A   Mostly Cloudy
3:45 AM 8.6 °F -5.5 °F 6.8 °F 92% 29.76 in 10.0 mi SSE 10.4 mph 18.4 mph N/A   Partly Cloudy
4:05 AM 10.4 °F -5.4 °F 8.6 °F 92% 29.75 in 10.0 mi South 13.8 mph - N/A   Mostly Cloudy
4:25 AM 10.4 °F -7.2 °F 10.4 °F 100% 29.74 in 10.0 mi South 17.3 mph 23.0 mph N/A   Overcast
4:45 AM 14.0 °F -2.5 °F 10.4 °F 86% 29.72 in 10.0 mi South 17.3 mph 20.7 mph N/A   Overcast
5:05 AM 14.0 °F -2.5 °F 10.4 °F 86% 29.71 in 10.0 mi South 17.3 mph 21.9 mph N/A   Overcast
5:25 AM 14.0 °F -1.4 °F 12.2 °F 93% 29.71 in 10.0 mi South 15.0 mph 26.5 mph N/A   Overcast
5:45 AM 14.0 °F -1.4 °F 12.2 °F 93% 29.70 in 10.0 mi South 15.0 mph - N/A   Mostly Cloudy
6:05 AM 14.0 °F -2.0 °F 14.0 °F 100% 29.69 in 10.0 mi South 16.1 mph - N/A   Overcast
6:25 AM 14.0 °F -3.0 °F 14.0 °F 100% 29.70 in 10.0 mi South 18.4 mph - N/A   Overcast
6:45 AM 15.8 °F 0.3 °F 15.8 °F 100% 29.68 in 10.0 mi South 16.1 mph - N/A   Overcast
7:05 AM 15.8 °F -0.2 °F 15.8 °F 100% 29.66 in 10.0 mi South 17.3 mph - N/A   Overcast
7:25 AM 17.6 °F 0.9 °F 17.6 °F 100% 29.66 in 10.0 mi South 20.7 mph - N/A   Overcast
7:45 AM 19.4 °F 4.5 °F 19.4 °F 100% 29.67 in 10.0 mi SSW 17.3 mph - N/A   Overcast
8:05 AM 19.4 °F 3.6 °F 19.4 °F 100% 29.65 in 10.0 mi South 19.6 mph - N/A   Mostly Cloudy
8:25 AM 21.2 °F 6.4 °F 21.2 °F 100% 29.65 in 10.0 mi SSW 18.4 mph 25.3 mph N/A   Mostly Cloudy
8:45 AM 21.2 °F 6.8 °F 21.2 °F 100% 29.65 in 10.0 mi South 17.3 mph 24.2 mph N/A   Scattered Clouds
9:05 AM 23.0 °F 12.4 °F 23.0 °F 100% 29.66 in 10.0 mi SW 10.4 mph - N/A   Scattered Clouds
9:25 AM 24.8 °F 13.4 °F 24.8 °F 100% 29.66 in 10.0 mi SW 12.7 mph - N/A   Clear
9:45 AM 26.6 °F 16.2 °F 26.6 °F 100% 29.66 in 10.0 mi SW 11.5 mph 20.7 mph N/A   Clear
10:05 AM 26.6 °F 13.4 °F 26.6 °F 100% 29.65 in 10.0 mi SW 18.4 mph 21.9 mph N/A   Clear
10:25 AM 28.4 °F 17.5 °F 28.4 °F 100% 29.65 in 10.0 mi SW 13.8 mph - N/A   Clear
10:45 AM 30.2 °F 19.3 °F 30.2 °F 100% 29.64 in 10.0 mi WSW 15.0 mph 20.7 mph N/A   Clear
11:05 AM 32.0 °F 22.5 °F 32.0 °F 100% 29.64 in 10.0 mi West 12.7 mph 19.6 mph N/A   Clear
11:25 AM 35.6 °F 25.2 °F 32.0 °F 87% 29.64 in 10.0 mi West 18.4 mph 23.0 mph N/A   Clear
11:45 AM 35.6 °F 25.9 °F 32.0 °F 87% 29.64 in 10.0 mi West 16.1 mph 26.5 mph N/A   Clear
12:05 PM 35.6 °F 24.2 °F 32.0 °F 87% 29.64 in 10.0 mi WNW 21.9 mph 29.9 mph N/A   Clear
12:25 PM 33.8 °F 21.6 °F 32.0 °F 93% 29.65 in 10.0 mi WNW 23.0 mph 31.1 mph N/A   Clear
12:45 PM 33.8 °F 20.8 °F 32.0 °F 93% 29.66 in 10.0 mi WNW 26.5 mph 32.2 mph N/A   Clear
1:05 PM 33.8 °F 20.8 °F 32.0 °F 93% 29.67 in 10.0 mi WNW 26.5 mph 32.2 mph N/A   Scattered Clouds
1:25 PM 32.0 °F 18.6 °F 32.0 °F 100% 29.69 in 10.0 mi WNW 25.3 mph 34.5 mph N/A   Mostly Cloudy
1:45 PM 32.0 °F 20.1 °F 32.0 °F 100% 29.71 in 10.0 mi NW 19.6 mph 28.8 mph N/A   Overcast
2:05 PM 30.2 °F 15.4 °F 30.2 °F 100% 29.72 in 10.0 mi NW 28.8 mph 34.5 mph N/A   Overcast
2:25 PM 28.4 °F 12.7 °F 28.4 °F 100% 29.74 in 10.0 mi NW 29.9 mph 34.5 mph N/A   Overcast
2:45 PM 28.4 °F 13.3 °F 28.4 °F 100% 29.76 in 10.0 mi NNW 27.6 mph 34.5 mph N/A   Overcast
3:05 PM 28.4 °F 13.8 °F 28.4 °F 100% 29.78 in 10.0 mi NW 25.3 mph 34.5 mph N/A   Mostly Cloudy
3:25 PM 26.6 °F 10.3 °F 26.6 °F 100% 29.80 in 10.0 mi NW 29.9 mph 38.0 mph N/A   Mostly Cloudy
3:45 PM 26.6 °F 12.4 °F 26.6 °F 100% 29.82 in 10.0 mi NNW 21.9 mph 33.4 mph N/A   Overcast
4:05 PM 26.6 °F 11.4 °F 26.6 °F 100% 29.85 in 10.0 mi NNW 25.3 mph 34.5 mph N/A   Overcast
4:25 PM 26.6 °F 10.3 °F 26.6 °F 100% 29.86 in 10.0 mi NNW 29.9 mph 35.7 mph N/A   Overcast
4:45 PM 26.6 °F 12.4 °F 26.6 °F 100% 29.88 in 10.0 mi NNW 21.9 mph 32.2 mph N/A   Overcast
5:05 PM 26.6 °F 12.0 °F 26.6 °F 100% 29.91 in 10.0 mi NW 23.0 mph 29.9 mph N/A   Overcast
5:25 PM 24.8 °F 10.3 °F 24.8 °F 100% 29.92 in 10.0 mi NNW 20.7 mph 29.9 mph N/A   Overcast
5:45 PM 24.8 °F 9.3 °F 24.8 °F 100% 29.92 in 10.0 mi North 24.2 mph 29.9 mph N/A   Overcast
6:05 PM 23.0 °F 7.6 °F 23.0 °F 100% 29.96 in 10.0 mi NNW 21.9 mph - N/A   Overcast
6:25 PM 21.2 °F 5.6 °F 21.2 °F 100% 29.98 in 10.0 mi NNW 20.7 mph - N/A   Overcast
6:45 PM 21.2 °F 5.6 °F 21.2 °F 100% 29.99 in 10.0 mi NNW 20.7 mph 25.3 mph N/A   Overcast
7:05 PM 19.4 °F 2.8 °F 19.4 °F 100% 30.01 in 10.0 mi NNW 21.9 mph 26.5 mph N/A   Overcast
7:25 PM 17.6 °F 0.1 °F 17.6 °F 100% 30.03 in 10.0 mi NNW 23.0 mph - N/A Rain Light Freezing Rain
7:45 PM 17.6 °F 1.7 °F 17.6 °F 100% 30.03 in 10.0 mi North 18.4 mph - N/A   Overcast
8:05 PM 17.6 °F 2.2 °F 17.6 °F 100% 30.03 in 10.0 mi North 17.3 mph - N/A   Overcast
8:25 PM 15.8 °F -1.5 °F 15.8 °F 100% 30.02 in 10.0 mi NNW 20.7 mph 26.5 mph N/A   Overcast
8:45 PM 15.8 °F -1.9 °F 15.8 °F 100% 30.04 in 10.0 mi North 21.9 mph 26.5 mph N/A   Overcast
9:05 PM 15.8 °F -1.9 °F 15.8 °F 100% 30.04 in 10.0 mi North 21.9 mph 27.6 mph N/A Snow Light Snow
9:25 PM 14.0 °F -3.4 °F 14.0 °F 100% 30.04 in 10.0 mi North 19.6 mph 26.5 mph N/A Snow Light Snow
9:45 PM 14.0 °F -2.0 °F 14.0 °F 100% 30.05 in 10.0 mi North 16.1 mph 20.7 mph N/A Snow Light Snow
10:05 PM 14.0 °F -2.0 °F 14.0 °F 100% 30.06 in 10.0 mi North 16.1 mph 21.9 mph N/A Snow Light Snow
10:25 PM 14.0 °F -0.8 °F 14.0 °F 100% 30.05 in 10.0 mi NNE 13.8 mph - N/A   Overcast
10:45 PM 14.0 °F -1.4 °F 14.0 °F 100% 30.06 in 10.0 mi North 15.0 mph - N/A Snow Light Snow
11:05 PM 14.0 °F 2.0 °F 14.0 °F 100% 30.06 in 10.0 mi North 9.2 mph 16.1 mph N/A Rain Light Freezing Rain
11:25 PM 12.2 °F -3.1 °F 12.2 °F 100% 30.05 in 10.0 mi North 13.8 mph 18.4 mph N/A Snow Light Snow
11:45 PM 10.4 °F -3.3 °F 10.4 °F 100% 30.06 in 10.0 mi North 10.4 mph - N/A Snow Light Snow